Location: Poe
(41.0917°N, 81.8257°W)
Time: 08:37:37
(UTC+00:00)

Daily predictions for brighter satellites

Satellite Brightness Start Highest point End
(mag) Time Altitude Azimuth Time Altitude Azimuth Time Altitude Azimuth
Envisat 4.5 12:02:29 10° NNW 12:05:17 15° WNW 12:08:03 10° W
Meteor 1-10 Rocket 4.2 12:00:05 10° NNW 12:05:36 67° W 12:11:05 10° S
NOSS 3-1 (C) 4.4 22:19:57 10° NNW 22:27:08 47° NE 22:35:27 10° ESE
FengYun 1-2 T 4.3 22:26:12 10° SSE 22:31:44 65° ENE 22:37:16 10° N
Okean O Rocket 3.3 22:30:10 10° E 22:32:25 14° ENE 22:34:41 10° NNE
Cosmos 1271 Rocket 3.8 22:34:59 10° SSW 22:38:45 48° WNW 22:42:37 10° N
deb Kosmos-1763 4.0 22:35:24 10° SSW 22:38:47 76° WNW 22:42:12 10° NNE
NOAA 12 4.2 22:34:01 10° SSE 22:39:21 90° WSW 22:44:43 10° NNW
CZ-2C R/B 3.6 22:40:39 10° NE 22:44:56 26° E 22:49:11 10° SSE
CZ-4B R/B 3.4 22:40:52 10° S 22:45:04 67° WSW 22:49:06 10° NNW
Cosmos 1782 4.3 22:44:20 10° SE 22:46:58 17° E 22:49:29 11° NE
Cosmos 1408 Rocket 3.5 22:45:19 10° N 22:49:40 73° E 22:54:01 10° SSE
Meteor 2-19 Rocket 4.4 22:46:12 10° N 22:52:19 78° E 22:58:25 10° SSE
NOAA 6 4.0 22:48:30 10° SSE 22:53:39 82° ENE 22:58:48 10° NNW
Cosmos 1743 Rocket 3.9 22:50:08 10° N 22:54:15 41° ENE 22:58:20 10° SSE
MOS 1-B Rocket 4.4 22:49:12 10° NNE 22:54:47 45° E 23:01:01 10° S
USA 276 3.7 22:52:29 10° NW 22:54:53 20° NNE 22:56:21 15° NE
Cosmos 1340 Rocket 2.9 22:56:31 10° N 23:00:33 57° ENE 23:04:33 10° SSE
MOS 1-B 4.4 22:55:35 10° SE 23:01:09 54° ENE 23:06:46 10° N
CZ-4C R/B 4.1 22:56:51 10° NNW 23:01:52 20° NNE 23:05:29 15° ENE
GEOS 3 Rocket 4.5 23:00:22 10° E 23:04:45 30° NE 23:09:13 10° NNW
Cosmos 1763 Rocket 3.4 23:00:54 10° S 23:05:51 61° ESE 23:10:53 10° NNE
Lacrosse 5 3.3 23:01:34 10° WNW 23:06:19 40° SW 23:11:04 10° SSE
Cosmos 841 Rocket 4.4 23:03:35 10° SSE 23:07:52 27° E 23:10:34 17° NE
Cosmos 1937 Rocket 4.3 23:04:13 10° N 23:08:50 29° ENE 23:13:26 10° ESE
Cosmos 1602 4.3 23:05:36 10° N 23:09:08 34° ENE 23:12:39 10° SE
Cosmos 1933 3.5 23:06:07 10° S 23:10:02 51° E 23:13:58 10° NNE
AQUARIUS 4.3 23:06:46 10° S 23:11:15 76° WSW 23:15:45 10° NNW
Cosmos 1151 Rocket 4.4 23:08:50 10° SE 23:11:37 19° E 23:11:37 19° E
Cosmos 1697 Rocket 3.1 23:08:00 10° N 23:13:11 37° ENE 23:18:21 10° SE
SKYMED 2 3.9 23:09:57 10° NNE 23:14:07 45° E 23:18:16 10° S
Cosmos 1980 Rocket 3.3 23:10:42 10° N 23:15:01 22° NE 23:16:12 20° ENE
Cosmos 1656 3.6 23:12:43 10° NNW 23:18:17 81° ENE 23:23:53 10° SSE
CZ-4B DEB 4.3 23:13:19 10° SSE 23:18:50 80° WSW 23:24:23 10° NNW
SJ 16-02 3.3 23:16:06 10° NW 23:20:01 32° W 23:23:54 10° SSW
CZ-2D R/B 3.1 23:16:35 10° SSE 23:20:25 87° ENE 23:24:16 10° N
Cosmos 2082 Rocket 3.0 23:17:11 10° SSE 23:22:05 30° ESE 23:24:16 23° ENE
Cosmos 990 Rocket 3.9 23:18:47 10° NNW 23:24:00 72° ENE 23:29:08 10° SSE
Cosmos 1500 Rocket 3.6 23:20:09 10° N 23:24:36 83° W 23:29:01 10° S
Nadezhda 4 Rocket 4.5 23:21:25 10° NNW 23:27:39 65° W 23:33:53 10° S
Meteor 2-14 Rocket 4.5 23:21:40 10° N 23:27:40 56° E 23:33:36 10° SSE
COSMOS 2406 3.3 23:22:26 10° S 23:28:04 59° ESE 23:32:20 18° NE
PSLV R/B 4.5 23:29:40 10° S 23:33:16 52° W 23:36:53 10° NNW
PAYLOAD B 4.5 23:29:40 10° S 23:35:15 75° WSW 23:40:53 10° NNW
GPS 2-04 Rocket1 4.0 23:31:51 10° SW 23:35:28 30° SSE 23:36:51 24° SE
Cosmos 1805 Rocket 3.4 23:31:11 10° N 23:35:32 75° E 23:39:50 10° SSE
Cosmos 1809 Rocket 4.3 23:31:26 10° N 23:37:34 80° E 23:43:38 10° S
Cosmos 1092 Rocket 4.0 23:31:58 10° N 23:38:22 90° SSE 23:44:41 10° S
Meteor 2-21 Rocket 4.4 23:38:14 10° N 23:44:15 56° ENE 23:50:10 10° SSE
Meteor 1-26 Rocket 4.2 23:38:28 10° S 23:44:21 80° E 23:50:23 10° NNE
Sich 1 2.8 23:41:43 10° N 23:46:01 76° E 23:50:18 10° SSE
YAOGAN 3 4.4 23:43:33 10° SSE 23:47:54 81° ENE 23:52:16 10° N
Cosmos 2142 Rocket 4.4 23:43:46 10° S 23:49:47 63° E 23:55:53 10° NNE
Cosmos 1428 Rocket 4.5 23:44:13 10° N 23:50:21 84° W 23:56:30 10° S
USA 229 DEB 3.8 23:44:32 10° NNW 23:51:57 75° NE 23:59:48 10° SE
USA 229 3.8 23:44:38 10° NNW 23:52:03 75° NE 23:59:54 10° SE
CZ-4 R/B 4.3 23:49:04 10° SSE 23:53:10 87° ENE 23:57:19 10° NNW
Landsat 5 3.4 23:53:31 28° N 23:55:40 85° WNW 23:59:42 10° SSW
